Regional Weather Roundup
Issued by NWS

Home | Current Version | Previous Version | Text Only | Print | Product List | Glossary On
Versions: 1 2 3 4 5 6 7 8 9 10 11 12 13 14 15 16 17 18 19 20 21 22 23 24 25 26 27 28 29 30 31 32 33 34 35 36 37 38 39 40 41 42 43 44 45 46 47 48 49 50
285
ASUS46 KSTO 231215
RWRCA

NORTHERN AND CENTRAL CA REGIONAL WEATHER ROUNDUP
NATIONAL WEATHER SERVICE SACRAMENTO CA
400 AM PST THU FEB 23 2017

NOTE: FAIR INDICATES FEW OR NO CLOUDS BELOW 12,000 FEET WITH NO
SIGNIFICANT WEATHER AND/OR OBSTRUCTIONS TO VISIBILITY.

CAZ001-003-231300-
NORTHWEST AREA

CITY           SKY/WX    TMP DP  RH WIND       PRES   REMARKS
CRESCENT CITY  PTCLDY    35  34  96 E6        30.26R WCI  30
UKIAH          CLEAR     32  31  96 N3        30.21S
$$

CAZ006-505>513-231300-
BAY AREA

CITY           SKY/WX    TMP DP  RH WIND       PRES   REMARKS
SANTA ROSA     CLEAR     33  32  96 CALM      30.20R
SAN RAFAEL     N/A       43  MM  MM MISG
NAPA           CLEAR     37  33  85 N3        30.19S
CONCORD        CLEAR     42  33  70 W5        30.20R
OAKLAND CITY   N/A      MM  MM  MM MISG
OAKLAND        CLEAR     46  31  55 NW13G18   30.20S
SAN FRAN CITY  N/A       44  MM  60 MISG
SAN FRAN ARPT  PTCLDY    45  33  63 NW9       30.20F
LIVERMORE      CLEAR     39  30  70 CALM      30.18S
HAYWARD        CLEAR     43  28  55 N6        30.20S
REDWOOD CITY   N/A       42  MM  77 MISG
MOFFETT ARPT   CLEAR     43  33  68 W3        30.21S
SAN JOSE ARPT  CLEAR     42  33  70 W8        30.20F
$$
CAZ034-037-514>518-231300-
CENTRAL COAST

CITY           SKY/WX    TMP DP  RH WIND       PRES   REMARKS
WATSONVILLE    CLEAR     36  35  96 CALM      30.21S
SALINAS        CLEAR     39  33  79 CALM      30.21S
MONTEREY       PTCLDY    46  36  68 NW10      30.21F
SAN LUIS OBISP CLEAR     44  34  67 VRB3      30.18S
SANTA MARIA    CLEAR     38  34  85 W3        30.17F
$$
CAZ015-016-231300-
NORTHERN SACRAMENTO VALLEY

CITY           SKY/WX    TMP DP  RH WIND       PRES   REMARKS
REDDING        CLEAR     34  32  92 CALM      30.14R
RED BLUFF      CLEAR     37  28  70 NW3       30.16S
OROVILLE       CLEAR     36  31  82 CALM      30.17S
$$
CAZ016>018-231300-
SOUTHERN SACRAMENTO VALLEY

CITY           SKY/WX    TMP DP  RH WIND       PRES   REMARKS
AUBURN         CLEAR     36  34  93 SE6       30.12F WCI  31
BEALE AFB      CLEAR     37  33  87 CALM      30.15S
LINCOLN        FAIR      36  34  93 SE6       30.15F WCI  31
MARYSVILLE     PTCLDY    36  33  89 CALM      30.18R
SAC INTL ARPT  CLEAR     35  33  92 NE6       30.16S WCI  30
MATHER AIRPORT PTCLDY    32  32 100 SE5       30.17R WCI  27
DOWNTOWN SAC   N/A       39  MM  MM MISG
SAC EXEC ARPT  CLEAR     36  35  96 CALM      30.17R
VACAVILLE      CLEAR     40  29  64 NW5       30.17S
TRAVIS AFB     CLEAR     36  31  82 W7        30.15S WCI  30
$$
CAZ019>021-231300-
SAN JOAQUIN VALLEY

CITY           SKY/WX    TMP DP  RH WIND       PRES   REMARKS
STOCKTON       CLEAR     36  33  89 W7        30.17S WCI  30
MODESTO        CLEAR     40  31  70 N3        30.17S
MERCED         CLEAR     39  33  79 CALM      30.17S
LEMOORE        CLEAR     38  32  79 NW5       30.18S WCI  34
FRESNO         CLEAR     38  33  82 NW6       30.17F WCI  33
HANFORD        CLEAR     38  35  89 NW6       30.17F WCI  33
PORTERVILLE    CLEAR     33  32  96 S5        30.17S WCI  29
BAKERSFIELD    CLEAR     40  35  83 N7        30.15F
$$
CAZ011-012-071-231300-
NORTHERN MOUNTAINS

CITY           SKY/WX    TMP DP  RH WIND       PRES   REMARKS
YREKA          MOCLDY    25  23  92 CALM      30.12S
MOUNT SHASTA   MOCLDY    28  20  71 CALM      30.05R
ALTURAS        CLOUDY    21  17  84 N5        30.00R WCI  15
$$
CAZ011-012-071-231300-
SIERRA NEVADA MTNS

CITY           SKY/WX    TMP DP  RH WIND       PRES   REMARKS
BLUE CANYON    CLOUDY    21  20  96 CALM      29.98S
TRUCKEE        MOCLDY     9   7  92 CALM      29.95S
TAHOE VLY ARPT CLOUDY    19  12  74 S7        29.91S WCI  10
MAMMOTH LAKES  FAIR      18  -6  35 W10G17    29.87F WCI   6
$$




USA.gov is the U.S. government's official web portal to all federal, state and local government web resources and services.